EEST,Max TemperatureF,Mean TemperatureF,Min TemperatureF,Max Dew PointF,MeanDew PointF,Min DewpointF,Max Humidity, Mean Humidity, Min Humidity, Max Sea Level PressureIn, Mean Sea Level PressureIn, Min Sea Level PressureIn, Max VisibilityMiles, Mean VisibilityMiles, Min VisibilityMiles, Max Wind SpeedMPH, Mean Wind SpeedMPH, Max Gust SpeedMPH,PrecipitationIn, CloudCover, Events, WindDirDegrees
2013-3-1,59,49,39,45,42,37,93,72,46,30.17,30.08,30.01,6,6,6,7,2,,0.00,1,,356
2013-3-2,60,51,42,46,43,39,93,72,41,30.01,29.87,29.74,6,6,6,12,2,,0.91,5,Rain,87
2013-3-3,60,53,46,46,43,39,93,73,40,29.98,29.86,29.80,6,6,6,18,8,,0.00,4,Rain,13
2013-3-4,60,50,39,46,42,36,93,76,46,30.18,30.06,29.98,6,6,5,7,1,,0.00,1,,316
2013-3-5,64,52,39,46,42,37,93,68,35,30.31,30.27,30.18,6,6,5,7,1,,0.00,5,,315
2013-3-6,60,52,43,45,41,33,87,67,25,30.30,30.19,30.06,6,6,6,6,0,,0.00,7,,310
2013-3-7,55,52,49,50,47,41,94,81,55,30.07,29.95,29.89,6,6,5,13,5,,0.12,8,Rain,63
2013-3-8,63,57,51,55,52,46,94,84,64,29.92,29.89,29.86,6,5,5,9,2,,0.01,7,Rain,169
2013-3-9,65,59,53,57,54,50,94,82,63,29.86,29.83,29.80,6,6,5,12,6,,0.00,4,Rain,178
2013-3-10,66,58,51,57,53,48,94,80,55,29.88,29.79,29.71,6,6,6,12,5,,0.00,4,,166
2013-3-11,69,58,48,57,51,46,94,80,44,29.74,29.69,29.65,6,6,5,8,1,,0.08,5,Rain,286
2013-3-12,65,56,47,52,49,45,94,74,47,29.77,29.71,29.65,6,6,6,9,3,,0.00,2,,211
2013-3-13,62,58,53,55,52,47,88,78,59,29.78,29.73,29.62,6,6,4,18,8,,0.12,4,Rain,170
2013-3-14,65,58,51,54,46,41,82,61,43,29.60,29.41,29.30,6,6,4,24,13,36,0.08,6,Rain,179
2013-3-15,58,51,44,46,42,37,87,68,48,29.62,29.52,29.39,6,6,3,17,8,32,0.00,5,Rain-Thunderstorm,233
2013-3-16,53,47,41,43,37,28,93,68,39,30.09,29.90,29.65,6,6,6,17,5,,0.08,4,Rain,317
2013-3-17,53,48,43,39,33,27,76,55,33,30.18,30.14,30.09,6,6,6,14,8,,0.00,3,,353
2013-3-18,55,48,42,43,39,36,81,67,44,30.17,30.06,29.95,6,6,6,8,2,,0.00,6,,118
2013-3-19,67,54,42,54,48,37,88,74,45,29.90,29.84,29.80,6,6,6,16,4,,0.00,3,,178
2013-3-20,69,57,45,55,50,43,94,72,40,29.89,29.80,29.68,6,6,6,8,2,,0.00,4,,351
2013-3-21,70,61,52,55,50,39,88,71,50,29.77,29.65,29.62,6,6,5,20,5,24,0.00,5,,271
2013-3-22,59,55,51,43,39,37,67,53,31,29.89,29.81,29.71,6,6,6,21,15,24,0.00,2,,310
2013-3-23,61,52,42,45,41,36,87,61,38,30.01,29.97,29.92,6,6,6,8,4,,0.00,1,,301
2013-3-24,66,52,39,48,42,34,87,60,37,30.00,29.91,29.83,6,6,6,15,3,,0.00,3,,169
2013-3-25,71,59,47,55,47,37,82,66,31,29.83,29.65,29.59,6,6,6,30,7,,0.00,5,,186
2013-3-26,61,57,53,52,50,46,94,73,55,29.74,29.64,29.53,6,6,6,18,9,,0.00,5,Rain,236
2013-3-27,66,60,53,55,53,48,88,77,62,29.89,29.77,29.68,6,6,6,12,5,,0.00,5,,197
2013-3-28,69,60,52,54,50,43,94,72,31,30.01,29.95,29.89,6,6,6,12,3,,0.00,3,Rain,167
2013-3-29,72,60,48,57,52,45,93,73,38,30.01,29.94,29.86,6,6,6,10,1,,0.00,4,,359
2013-3-30,78,64,51,55,51,48,88,65,34,29.89,29.81,29.77,6,6,6,21,6,,0.00,3,,167
2013-3-31,65,59,51,57,53,48,94,78,62,29.83,29.79,29.74,6,6,6,16,8,,0.00,4,Rain,175
2013-4-1,,,,,,,,,,,,,,,,,,,,,,